Tracking 19794 objects as of 23-Jul-2019
HD Live streaming from Space Station
objects crossing your sky now

COSMOS 1275 DEB

Track COSMOS 1275 DEB now!
10-day predictions


NORAD ID: 12768
Int'l Code: 1981-053DM
Perigee: 916.1 km
Apogee: 993.5 km
Inclination: 82.9 °
Period: 104.0 minutes
Semi major axis: 7325 km
RCS: 0.042 m2 (small)
Launch date: June 4, 1981
Source: Commonwealth of Independent States (former USSR) (CIS)
Launch site: PLESETSK MISSILE AND SPACE COMPLEX (PKMTR)

Note: This is SATELLITE DEBRIS
aabbcc
Your satellite tracking list
Your tracking list is empty




NASA's NSSDC Master Catalog

Two Line Element Set (TLE):
1 12768U 81053DM  19202.79492560 +.00000133 +00000-0 +10308-3 0  9999
2 12768 082.9307 205.9338 0052803 073.5134 350.6229 13.84581646910313
Source of the keplerian elements: AFSPC